Location: Curupao
(10.4996°N, 66.6442°W)
Time: 23:09:54
(UTC+00:00)

IRS-1D - Pass Details

Date: 23 May 2024
Orbit: 738 x 813 km, 98.8° (Epoch: 25 June)

Event Time Altitude Azimuth Distance (km) Brightness Sun altitude
Rises 08:20:17 0° 359° (N) 3,313 7.2 -24.0°
Reaches altitude 10° 08:22:46 10° 352° (N) 2,376 6.3 -23.4°
Enters shadow 08:27:23 38° 291° (WNW) 1,187 4.1 -22.4°
